Tracking 29892 objects as of 21-Nov-2024
HD Live streaming from Space Station
objects crossing your sky now

STARLINK-4046

Track STARLINK-4046 now!
10-day predictions
STARLINK-4046 is classified as:


NORAD ID: 52842
Int'l Code: 2022-062N
Perigee: 545.9 km
Apogee: 547.9 km
Inclination: 53.2 °
Period: 95.4 minutes
Semi major axis: 6917 km
RCS: Unknown
Launch date: June 17, 2022
Source: United States (US)
Launch site: AIR FORCE EASTERN TEST RANGE (AFETR)
Your satellite tracking list
Your tracking list is empty




NASA's NSSDC Master Catalog

Two Line Element Set (TLE):
1 52842U 22062N   24326.12622683  .00001068  00000-0  85201-4 0  9995
2 52842  53.2179 359.9484 0001437  93.2961 266.8195 15.08835421134784
Source of the keplerian elements: AFSPC